DELTA 1 DEB, 2118

Orbit data source: Space-Track

DELTA 1 DEB, 2118 is space debris in SSO originally from a launch on Thu, 03 Feb 1966 UTC launched from the Air Force Eastern Test Range (AFETR). Debris objects in space refer to the collection of defunct objects orbiting the Earth. Examples of debris include non-operational satellites, rocket bodies, and fragments generated from explosions, collisions, or faulty payload assembly.

Loading next visibility...
Identifier
2118, 1966-008D
Orbit
SSO
Country
Flag of USUS
Related business
Manufacturer
Unknown
Mission
Spacecraft
Bus & Motor
Unknown
Mass
~1 kg wet, ~1 kg dry
Launch date (UTC)
1966-02-03 (60 years ago)
Launch vehicle
Unknown
Launch site
Air Force Eastern Test Range (AFETR)
Object type
Payload
Rocket body
Debris
Shape & HBR
Box + 1 Cable, 1.8 m
Radar Cross Section
6.125 m², Small (<0.1 m²)

Expand to show TLE details & history
Last TLE update: 13 hours ago

TLE from 13 hours ago
0 DELTA 1 DEB
1 02118U 66008D   25257.96390011  .00000367  00000-0  10449-3 0  9999
2 02118  98.0214  38.9494 0126552 347.5146  12.2920 14.46352454 96038
Epoch: 2025-09-14T23:08Z
TLE epoch observation values (Epoch: 2025-09-14T23:08:00.969Z)
Latitude
-0.00004°
Longitude
57.77001°
Altitude
652.607 km
Speed
7.578 km/s
True Right ascension
02h 35m 47s
True Declination
0° 00' 00"
Sunlit
Object was in full shadow at epoch
Visualization orbit readout
Latitude
Unknown
Longitude
Unknown
Altitude
Unknown
Speed
Unknown
Apparent Right ascension
Unknown
Apparent Declination
Unknown
Sunlit
N/A
Visualization observer readout
Local Sidereal Time
04:59:45
Azimuth
Unknown
Elevation
Unknown
Doppler factor
Unknown
Orbital elements
Apogee altitude
824.692 km
Perigee altitude
644.663 km
Semi-major axis
7,112.814 km
Eccentricity
0.01266
Inclination
98.0214°
RAAN
38.9494°
Arg. of periapsis
347.5146°
True anomaly
12.60558°
Mean anomaly
12.292°
Eccentric anomaly
12.4483°
Mean motion
3.6181 °/min
Orbital period
99.5 mins
BSTAR
0.00010449
Loading maneuver chart data...
Computing Atmospheric mass density...
Loading historical data...
Loading historical data...
Loading historical data...
Loading historical data...
Loading historical data...
Loading historical data...
Loading historical data...
Other satellites on launch #8 in the year 1966 (1966-02-03 UTC)

Documentation

Showing up to 5 results
|